Location: Unspecified
(41.1637°N, 24.2901°E)
Time: 18:54:48
(UTC+01:00)

ISS - Pass Details

Date: 11 January 2025
Orbit: 415 x 418 km, 51.6° (Epoch: 13 January)

Event Time Altitude Azimuth Distance (km) Brightness Sun altitude
Rises 18:00:28 0° 206° (SSW) 2,339 0.6 -19.5°
Reaches altitude 10° 18:02:45 10° 194° (SSW) 1,481 -0.7 -19.9°
Enters shadow 18:04:29 22° 168° (SSE) 968 -2.0 -20.2°
